DECAYED

STARLINK-1953, 47554 (Decayed)

Orbit data source: Space-Track

STARLINK-1953, 47554 was a payload satellite owned by SpaceX/Seattle (US) in LEO that was launched on Thu, 04 Feb 2021 UTC via an FALCON 9 launch vehicle from the Air Force Eastern Test Range (AFETR). Payload-class satellites include a variety of spacecraft equipped with specific instruments for various scientific and technological missions. These include communications satellites like Starlink; space stations such as the ISS; scientific satellites like the Hubble; Earth observation satellites from companies like Planet Labs, Umbra, and HawkEye 360; GPS; miniature CubeSats for education and research; and military/defense satellites.

Not visible in the next 10 days
Identifier
47554, 2021-009G
Orbit
Decayed
Country
Flag of USUS
Related business
Manufacturer
SpaceX/Seattle
Mission
Decayed Commercial Communications
Bus & Motor
STARLINK, Unknown motor
Mass
260 kg wet, ~248 kg dry
Launch date (UTC)
2021-02-04 (5 years ago)
Launch vehicle
FALCON 9
Launch site
Air Force Eastern Test Range (AFETR)
Object type
Payload
Rocket body
Debris
Shape & HBR
Box + 1 Pan, 10.1 m
Radar Cross Section
13.562 m², Large (>1 m²)

Expand to show TLE details & history
Last TLE update: 1 year ago

TLE from 1 year ago
0 STARLINK-1953
1 47554U 21009G   25068.59415453  .12363957  12436-4  87064-3 0  9998
2 47554  53.0321 183.3129 0007547 302.8094 158.4593 16.40181792226898
Epoch: 2025-03-09T14:15Z
TLE epoch observation values (Epoch: 2025-03-09T14:15:34.951Z)
Latitude
51.73796°
Longitude
-89.7046°
Altitude
176.064 km
Speed
7.804 km/s
True Right ascension
19h 26m 51s
True Declination
51° 33' 21"
Sunlit
Object was in daylight at epoch
Visualization orbit readout
Latitude
Unknown
Longitude
Unknown
Altitude
Unknown
Speed
Unknown
Apparent Right ascension
Unknown
Apparent Declination
Unknown
Sunlit
N/A
Visualization observer readout
Local Sidereal Time
23:08:09
Azimuth
Unknown
Elevation
Unknown
Doppler factor
Unknown
Orbital elements
Apogee altitude
170.547 km
Perigee altitude
160.67 km
Semi-major axis
6,543.746 km
Eccentricity
0.00075
Inclination
53.0321°
RAAN
183.3129°
Arg. of periapsis
302.8094°
True anomaly
158.49103°
Mean anomaly
158.4593°
Eccentric anomaly
158.47517°
Mean motion
4.10019 °/min
Orbital period
87.8 mins
BSTAR
0.00087064
Loading maneuver chart data...
Computing Atmospheric mass density...

Documentation

Showing up to 5 results
|